Time,TemperatureF,DewpointF,PressureIn,WindDirection,WindDirectionDegrees,WindSpeedMPH,WindSpeedGustMPH,Humidity,HourlyPrecipIn,Conditions,Clouds,dailyrainin,SoftwareType,DateUTC
2013-09-27 19:17:00,82.1,75.7,29.91,SE,135,9.0,15.0,81,0.00,,,0.00,Wunderground v.1.15,2013-09-28 00:17:00,
2013-09-27 19:18:00,82.1,75.7,29.91,ENE,68,9.0,15.0,81,0.00,,,0.00,Wunderground v.1.15,2013-09-28 00:18:00,
2013-09-27 19:19:00,82.0,75.6,29.91,SE,136,10.0,15.0,81,0.00,,,0.00,Wunderground v.1.15,2013-09-28 00:19:00,
2013-09-27 19:21:00,82.1,76.1,29.91,East,92,10.0,15.0,82,0.00,,,0.00,Wunderground v.1.15,2013-09-28 00:21:00,
2013-09-27 19:23:00,82.1,76.1,29.91,South,174,10.0,15.0,82,0.00,,,0.00,Wunderground v.1.15,2013-09-28 00:23:00,
2013-09-27 19:28:00,82.1,75.7,29.91,SE,131,9.0,15.0,81,0.00,,,0.00,Wunderground v.1.15,2013-09-28 00:28:00,
2013-09-27 19:33:00,82.0,75.6,29.91,ESE,105,9.0,15.0,81,0.00,,,0.00,Wunderground v.1.15,2013-09-28 00:33:00,
2013-09-27 19:38:00,82.0,75.6,29.91,East,91,10.0,15.0,81,0.00,,,0.00,Wunderground v.1.15,2013-09-28 00:38:00,
2013-09-27 19:44:00,82.0,76.0,29.91,SE,128,9.0,15.0,82,0.00,,,0.00,Wunderground v.1.15,2013-09-28 00:44:00,
2013-09-27 19:49:00,82.0,76.0,29.92,SSE,153,9.0,15.0,82,0.00,,,0.00,Wunderground v.1.15,2013-09-28 00:49:00,
2013-09-27 19:54:00,81.9,75.5,29.92,ESE,112,10.0,15.0,81,0.00,,,0.00,Wunderground v.1.15,2013-09-28 00:54:00,
2013-09-27 19:59:00,82.0,76.0,29.92,East,82,10.0,15.0,82,0.00,,,0.00,Wunderground v.1.15,2013-09-28 00:59:00,
2013-09-27 20:04:00,81.9,75.5,29.92,East,93,10.0,15.0,81,0.00,,,0.00,Wunderground v.1.15,2013-09-28 01:04:00,
2013-09-27 20:10:00,81.9,75.1,29.92,ESE,110,11.0,11.0,80,0.00,,,0.00,Wunderground v.1.15,2013-09-28 01:10:00,
2013-09-27 20:15:00,81.9,75.5,29.92,SE,145,10.0,15.0,81,0.00,,,0.00,Wunderground v.1.15,2013-09-28 01:15:00,
2013-09-27 20:20:00,81.9,75.9,29.92,SE,131,10.0,10.0,82,0.00,,,0.00,Wunderground v.1.15,2013-09-28 01:20:00,
2013-09-27 20:25:00,81.9,75.9,29.92,SSE,159,10.0,15.0,82,0.00,,,0.00,Wunderground v.1.15,2013-09-28 01:25:00,
2013-09-27 20:30:00,81.9,75.5,29.92,SSE,161,9.0,15.0,81,0.00,,,0.00,Wunderground v.1.15,2013-09-28 01:30:00,
2013-09-27 20:36:00,81.9,75.9,29.93,East,91,9.0,15.0,82,0.00,,,0.00,Wunderground v.1.15,2013-09-28 01:36:00,
2013-09-27 20:41:00,81.9,75.9,29.92,ESE,114,9.0,15.0,82,0.00,,,0.00,Wunderground v.1.15,2013-09-28 01:41:00,
2013-09-27 20:47:00,81.8,75.4,29.93,East,87,10.0,15.0,81,0.00,,,0.00,Wunderground v.1.15,2013-09-28 01:47:00,
2013-09-27 20:54:00,81.8,75.8,29.93,East,81,10.0,15.0,82,0.00,,,0.00,Wunderground v.1.15,2013-09-28 01:54:00,
2013-09-27 21:00:00,81.8,75.8,29.93,ESE,103,9.0,9.0,82,0.00,,,0.00,Wunderground v.1.15,2013-09-28 02:00:00,
2013-09-27 21:07:00,81.9,75.9,29.93,ESE,117,9.0,15.0,82,0.00,,,0.00,Wunderground v.1.15,2013-09-28 02:07:00,
2013-09-27 21:14:00,81.8,75.4,29.93,East,84,10.0,15.0,81,0.00,,,0.00,Wunderground v.1.15,2013-09-28 02:14:00,
2013-09-27 21:21:00,81.8,75.4,29.93,ESE,123,10.0,15.0,81,0.00,,,0.00,Wunderground v.1.15,2013-09-28 02:21:00,
2013-09-27 21:29:00,81.8,75.8,29.94,ENE,63,10.0,15.0,82,0.00,,,0.00,Wunderground v.1.15,2013-09-28 02:29:00,
2013-09-27 21:35:00,81.8,75.8,29.94,East,91,9.0,15.0,82,0.00,,,0.00,Wunderground v.1.15,2013-09-28 02:35:00,
2013-09-27 21:42:00,81.8,75.4,29.94,SE,134,8.0,15.0,81,0.00,,,0.00,Wunderground v.1.15,2013-09-28 02:42:00,
2013-09-27 21:49:00,81.8,75.8,29.93,East,96,8.0,15.0,82,0.00,,,0.00,Wunderground v.1.15,2013-09-28 02:49:00,
2013-09-27 21:56:00,81.7,75.3,29.93,ENE,74,9.0,15.0,81,0.00,,,0.00,Wunderground v.1.15,2013-09-28 02:56:00,
2013-09-27 22:03:00,81.7,75.3,29.93,ESE,107,10.0,15.0,81,0.00,,,0.00,Wunderground v.1.15,2013-09-28 03:03:00,
2013-09-27 22:10:00,81.7,75.3,29.93,ESE,110,11.0,15.0,81,0.00,,,0.00,Wunderground v.1.15,2013-09-28 03:10:00,
2013-09-27 22:17:00,81.7,75.7,29.94,SSE,166,10.0,15.0,82,0.00,,,0.00,Wunderground v.1.15,2013-09-28 03:17:00,
2013-09-27 22:24:00,81.7,75.7,29.94,ESE,110,9.0,15.0,82,0.00,,,0.00,Wunderground v.1.15,2013-09-28 03:24:00,
2013-09-27 22:31:00,81.7,75.7,29.94,ESE,103,9.0,15.0,82,0.00,,,0.00,Wunderground v.1.15,2013-09-28 03:31:00,
2013-09-27 22:38:00,81.7,75.3,29.94,ESE,105,9.0,15.0,81,0.00,,,0.00,Wunderground v.1.15,2013-09-28 03:38:00,
2013-09-27 22:45:00,81.7,76.0,29.94,East,94,9.0,15.0,83,0.00,,,0.00,Wunderground v.1.15,2013-09-28 03:45:00,
2013-09-27 22:52:00,81.7,75.7,29.94,SE,134,9.0,15.0,82,0.00,,,0.00,Wunderground v.1.15,2013-09-28 03:52:00,
2013-09-27 22:59:00,81.7,75.7,29.94,SSE,164,10.0,15.0,82,0.00,,,0.00,Wunderground v.1.15,2013-09-28 03:59:00,
2013-09-27 23:02:00,81.7,75.7,29.94,East,98,10.0,15.0,82,0.00,,,0.00,Wunderground v.1.15,2013-09-28 04:02:00,
2013-09-27 23:06:00,81.7,75.7,29.94,SSE,160,10.0,15.0,82,0.00,,,0.00,Wunderground v.1.15,2013-09-28 04:06:00,
2013-09-27 23:13:00,81.7,76.0,29.94,ESE,122,9.0,15.0,83,0.00,,,0.00,Wunderground v.1.15,2013-09-28 04:13:00,
2013-09-27 23:17:00,81.6,75.6,29.94,ESE,123,9.0,15.0,82,0.00,,,0.00,Wunderground v.1.15,2013-09-28 04:17:00,
2013-09-27 23:23:00,81.6,75.6,29.94,East,98,11.0,14.0,82,0.00,,,0.00,Wunderground v.1.15,2013-09-28 04:23:00,
2013-09-27 23:28:00,81.7,76.0,29.94,ESE,102,11.0,15.0,83,0.00,,,0.00,Wunderground v.1.15,2013-09-28 04:28:00,
2013-09-27 23:32:00,81.6,75.6,29.94,East,88,11.0,15.0,82,0.00,,,0.00,Wunderground v.1.15,2013-09-28 04:32:00,
2013-09-27 23:37:00,81.6,75.2,29.94,ENE,74,11.0,15.0,81,0.00,,,0.00,Wunderground v.1.15,2013-09-28 04:37:00,
2013-09-27 23:42:00,81.6,75.6,29.93,East,89,11.0,15.0,82,0.00,,,0.00,Wunderground v.1.15,2013-09-28 04:42:00,
2013-09-27 23:48:00,81.6,75.6,29.93,SSE,167,12.0,16.0,82,0.00,,,0.00,Wunderground v.1.15,2013-09-28 04:48:00,
2013-09-27 23:53:00,81.6,75.9,29.93,South,172,12.0,15.0,83,0.00,,,0.00,Wunderground v.1.15,2013-09-28 04:53:00,
2013-09-27 23:59:00,81.6,75.9,29.93,ESE,112,11.0,15.0,83,0.00,,,0.00,Wunderground v.1.15,2013-09-28 04:59:00,